When you browse on this site, cookies collect data to enhance your experience and personalize the content and advertising you see.
Visit our Privacy Policy to learn more. By continuing to use the site, you agree to this use of cookies and data.
  • In Czech Republic
  • List of Countries
  • For 7 days
  • Water Temperature
  • Satellite Maps
  • Weather Map
  • Weather Widgets
  • user-avatar
    Login

    Hourly Weather Guadalajara

    Today, 20 June, Thursday

    Time Temperature Precipitation Wind Pressure Humidity
    00:00 +22°C° 0.9 mm 1 mps 633 mmHg 81%
    01:00 +21°C° 0.9 mm 1 mps 633 mmHg 84%
    02:00 +19°C° 0.9 mm 0 mps 633 mmHg 87%
    03:00 +19°C° 0.7 mm 0 mps 633 mmHg 87%
    04:00 +19°C° 0.7 mm 0 mps 633 mmHg 86%
    05:00 +19°C° 0.7 mm 0 mps 632 mmHg 86%
    06:00 +20°C° 0 mm 0 mps 633 mmHg 80%
    07:00 +22°C° 0 mm 0 mps 634 mmHg 73%
    08:00 +23°C° 0 mm 0 mps 635 mmHg 67%
    09:00 +25°C° 0 mm 0 mps 635 mmHg 59%
    10:00 +29°C° 0 mm 1 mps 636 mmHg 52%
    11:00 +31°C° 0 mm 1 mps 636 mmHg 45%
    12:00 +32°C° 0 mm 1 mps 635 mmHg 42%
    13:00 +31°C° 0 mm 0 mps 635 mmHg 40%
    14:00 +31°C° 0 mm 0 mps 634 mmHg 37%
    15:00 +30°C° 0 mm 0 mps 634 mmHg 39%
    16:00 +29°C° 0 mm 0 mps 633 mmHg 40%
    17:00 +29°C° 0 mm 0 mps 633 mmHg 42%
    18:00 +28°C° 0.3 mm 1 mps 633 mmHg 51%
    19:00 +26°C° 0.3 mm 1 mps 633 mmHg 60%
    20:00 +24°C° 0.3 mm 2 mps 632 mmHg 69%
    21:00 +24°C° 0.8 mm 1 mps 633 mmHg 72%
    22:00 +23°C° 0.8 mm 1 mps 633 mmHg 75%
    23:00 +21°C° 0.8 mm 0 mps 633 mmHg 79%

    Tomorrow, 21 June, Friday

    Time Temperature Precipitation Wind Pressure Humidity
    00:00 +20°C° 0.9 mm 0 mps 633 mmHg 80%
    01:00 +20°C° 0.9 mm 0 mps 633 mmHg 81%
    02:00 +20°C° 0.9 mm 0 mps 633 mmHg 82%
    03:00 +20°C° 0.2 mm 0 mps 633 mmHg 82%
    04:00 +19°C° 0.2 mm 0 mps 632 mmHg 82%
    05:00 +19°C° 0.2 mm 0 mps 632 mmHg 82%
    06:00 +21°C° 0 mm 0 mps 633 mmHg 76%
    07:00 +23°C° 0 mm 0 mps 634 mmHg 69%
    08:00 +24°C° 0 mm 0 mps 635 mmHg 63%
    09:00 +26°C° 0.1 mm 0 mps 635 mmHg 55%
    10:00 +31°C° 0.1 mm 1 mps 636 mmHg 48%
    11:00 +33°C° 0.1 mm 1 mps 636 mmHg 40%
    12:00 +33°C° 0 mm 1 mps 636 mmHg 38%
    13:00 +33°C° 0 mm 1 mps 636 mmHg 36%
    14:00 +34°C° 0 mm 2 mps 635 mmHg 34%
    15:00 +32°C° 0 mm 2 mps 634 mmHg 37%
    16:00 +31°C° 0 mm 2 mps 634 mmHg 41%
    17:00 +30°C° 0 mm 2 mps 633 mmHg 44%
    18:00 +29°C° 0 mm 2 mps 634 mmHg 49%
    19:00 +28°C° 0 mm 2 mps 634 mmHg 53%
    20:00 +26°C° 0 mm 2 mps 634 mmHg 58%
    21:00 +25°C° 0.1 mm 1 mps 634 mmHg 61%
    22:00 +25°C° 0.1 mm 1 mps 634 mmHg 64%
    23:00 +24°C° 0.1 mm 1 mps 634 mmHg 67%

    Day after tomorrow, 22 June, Saturday

    Time Temperature Precipitation Wind Pressure Humidity
    00:00 +23°C° 0.3 mm 1 mps 634 mmHg 69%
    01:00 +23°C° 0.3 mm 1 mps 634 mmHg 72%
    02:00 +20°C° 0.3 mm 0 mps 633 mmHg 74%
    03:00 +20°C° 0.1 mm 0 mps 633 mmHg 76%
    04:00 +19°C° 0.1 mm 0 mps 633 mmHg 78%
    05:00 +19°C° 0.1 mm 0 mps 633 mmHg 80%
    06:00 +21°C° 0 mm 0 mps 634 mmHg 73%
    07:00 +23°C° 0 mm 0 mps 635 mmHg 66%
    08:00 +25°C° 0 mm 0 mps 636 mmHg 58%
    09:00 +29°C° 0 mm 1 mps 636 mmHg 51%
    10:00 +31°C° 0 mm 1 mps 637 mmHg 43%
    11:00 +33°C° 0 mm 1 mps 637 mmHg 36%
    12:00 +33°C° 0 mm 1 mps 636 mmHg 32%
    13:00 +34°C° 0 mm 1 mps 636 mmHg 29%
    14:00 +34°C° 0 mm 1 mps 636 mmHg 25%
    15:00 +35°C° 0 mm 2 mps 635 mmHg 27%
    16:00 +34°C° 0 mm 2 mps 635 mmHg 28%
    17:00 +32°C° 0 mm 2 mps 634 mmHg 30%
    18:00 +30°C° 0 mm 2 mps 634 mmHg 37%
    19:00 +28°C° 0 mm 2 mps 634 mmHg 44%
    20:00 +26°C° 0 mm 2 mps 634 mmHg 50%
    21:00 +25°C° 0 mm 1 mps 634 mmHg 54%
    22:00 +24°C° 0 mm 1 mps 634 mmHg 58%
    23:00 +23°C° 0 mm 1 mps 634 mmHg 62%

    23 June, Sunday

    Time Temperature Precipitation Wind Pressure Humidity
    00:00 +23°C° 0 mm 1 mps 634 mmHg 64%
    01:00 +22°C° 0 mm 1 mps 633 mmHg 65%
    02:00 +20°C° 0 mm 0 mps 633 mmHg 67%
    03:00 +19°C° 0 mm 0 mps 633 mmHg 69%
    04:00 +19°C° 0 mm 0 mps 633 mmHg 71%
    05:00 +19°C° 0 mm 0 mps 633 mmHg 73%
    06:00 +21°C° 0 mm 0 mps 634 mmHg 67%
    07:00 +23°C° 0 mm 0 mps 634 mmHg 61%
    08:00 +25°C° 0 mm 0 mps 635 mmHg 55%
    09:00 +29°C° 0 mm 1 mps 636 mmHg 48%
    10:00 +30°C° 0 mm 1 mps 636 mmHg 42%
    11:00 +32°C° 0 mm 2 mps 636 mmHg 35%
    12:00 +32°C° 0 mm 2 mps 635 mmHg 32%
    13:00 +34°C° 0 mm 2 mps 635 mmHg 30%
    14:00 +34°C° 0 mm 3 mps 634 mmHg 27%
    15:00 +34°C° 0 mm 3 mps 634 mmHg 29%
    16:00 +33°C° 0 mm 3 mps 633 mmHg 31%
    17:00 +31°C° 0 mm 3 mps 633 mmHg 33%
    18:00 +29°C° 0 mm 2 mps 633 mmHg 39%
    19:00 +27°C° 0 mm 2 mps 633 mmHg 45%
    20:00 +25°C° 0 mm 1 mps 633 mmHg 51%
    21:00 +24°C° 0 mm 1 mps 633 mmHg 53%
    22:00 +24°C° 0 mm 1 mps 633 mmHg 56%
    23:00 +23°C° 0 mm 1 mps 633 mmHg 58%

    24 June, Monday

    Time Temperature Precipitation Wind Pressure Humidity
    00:00 +23°C° 0.1 mm 1 mps 633 mmHg 58%
    01:00 +22°C° 0.1 mm 1 mps 632 mmHg 59%
    02:00 +22°C° 0.1 mm 1 mps 632 mmHg 59%
    03:00 +20°C° 0 mm 0 mps 632 mmHg 60%
    04:00 +19°C° 0 mm 0 mps 632 mmHg 62%
    05:00 +19°C° 0 mm 0 mps 632 mmHg 64%
    06:00 +23°C° 0 mm 1 mps 633 mmHg 59%
    07:00 +24°C° 0 mm 1 mps 633 mmHg 55%
    08:00 +26°C° 0 mm 1 mps 634 mmHg 51%
    09:00 +28°C° 0 mm 1 mps 634 mmHg 44%
    10:00 +29°C° 0 mm 1 mps 635 mmHg 38%
    11:00 +31°C° 0 mm 2 mps 635 mmHg 32%
    12:00 +32°C° 0 mm 2 mps 635 mmHg 31%
    13:00 +32°C° 0 mm 2 mps 634 mmHg 30%
    14:00 +34°C° 0 mm 2 mps 634 mmHg 29%
    15:00 +32°C° 0 mm 2 mps 633 mmHg 30%
    16:00 +32°C° 0 mm 2 mps 633 mmHg 32%
    17:00 +31°C° 0 mm 2 mps 633 mmHg 33%
    18:00 +29°C° 0 mm 2 mps 633 mmHg 39%
    19:00 +27°C° 0 mm 2 mps 632 mmHg 45%
    20:00 +25°C° 0 mm 2 mps 632 mmHg 51%
    21:00 +24°C° 0.1 mm 2 mps 633 mmHg 54%
    22:00 +24°C° 0.1 mm 2 mps 633 mmHg 57%
    23:00 +23°C° 0.1 mm 1 mps 633 mmHg 60%

    25 June, Tuesday

    Time Temperature Precipitation Wind Pressure Humidity
    00:00 +23°C° 0.1 mm 1 mps 633 mmHg 64%
    01:00 +22°C° 0.1 mm 1 mps 632 mmHg 67%
    02:00 +22°C° 0.1 mm 1 mps 632 mmHg 71%
    03:00 +21°C° 0 mm 1 mps 632 mmHg 72%
    04:00 +21°C° 0 mm 1 mps 632 mmHg 74%
    05:00 +20°C° 0 mm 1 mps 632 mmHg 75%
    06:00 +22°C° 0 mm 1 mps 632 mmHg 67%
    07:00 +23°C° 0 mm 1 mps 633 mmHg 60%
    08:00 +25°C° 0 mm 1 mps 634 mmHg 52%
    09:00 +27°C° 0 mm 1 mps 634 mmHg 46%
    10:00 +29°C° 0 mm 1 mps 635 mmHg 40%
    11:00 +31°C° 0 mm 1 mps 635 mmHg 35%
    12:00 +32°C° 0 mm 1 mps 635 mmHg 34%
    13:00 +33°C° 0 mm 1 mps 635 mmHg 32%
    14:00 +33°C° 0 mm 1 mps 634 mmHg 31%
    15:00 +32°C° 0 mm 1 mps 634 mmHg 36%
    16:00 +30°C° 0 mm 2 mps 633 mmHg 41%
    17:00 +29°C° 0 mm 2 mps 632 mmHg 46%
    18:00 +27°C° 0.2 mm 2 mps 633 mmHg 52%
    19:00 +26°C° 0.2 mm 2 mps 633 mmHg 57%
    20:00 +25°C° 0.2 mm 2 mps 633 mmHg 63%
    21:00 +24°C° 0.3 mm 1 mps 633 mmHg 65%
    22:00 +23°C° 0.3 mm 1 mps 634 mmHg 67%
    23:00 +23°C° 0.3 mm 1 mps 634 mmHg 69%
    Show more